Location: Unspecified
(0.0000°N, 0.0000°E)
Time: 15:35:25
(UTC+00:00)

deb Delta 126 - Pass Details

Date: 19 February 2026
Orbit: 1137 x 1258 km, 102.0° (Epoch: 8 March)

Event Time Altitude Azimuth Distance (km) Brightness Sun altitude
Rises 02:47:05 0° 155° (SSE) 4,194 ? -50.3°
Reaches altitude 10° 02:49:47 10° 150° (SSE) 3,232 ? -49.7°
Enters shadow 02:51:36 19° 146° (SE) 2,615 ? -49.2°
